Regional Weather Roundup
Issued by NWS

Home | Current Version | Previous Version | Text Only | Print | Product List | Glossary On
Versions: 1 2 3 4 5 6 7 8 9 10 11 12 13 14 15 16 17 18 19 20 21 22 23 24 25 26 27 28 29 30 31 32 33 34 35 36 37 38 39 40 41 42 43 44 45 46 47 48 49 50
000
ASUS43 KLOT 060503
RWRIL

ILLINOIS REGIONAL WEATHER ROUNDUP
NATIONAL WEATHER SERVICE CHICAGO/ROMEOVILLE IL
1100 PM CST FRI FEB 05 2016

NOTE: "FAIR" INDICATES FEW OR NO CLOUDS BELOW 12,000 FEET WITH NO
SIGNIFICANT WEATHER AND/OR OBSTRUCTIONS TO VISIBILITY.

* THESE STATIONS ARE NOT UNDER NWS QUALITY CONTROL. THEY ALSO MAY NOT
  REPORT WEATHER SUCH AS PRECIPITATION OR FOG.

ILZ001-002-007-009-015-016-024-060600-
NORTHWEST ILLINOIS

CITY           SKY/WX    TMP DP  RH WIND       PRES   REMARKS
MOLINE         CLOUDY    29  22  75 S5        30.31F WCI  24
STERLING*      CLOUDY    28  21  74 CALM      30.29S
$$

ILZ003-004-008-010-011-017-018-060600-
NORTH CENTRAL ILLINOIS

CITY           SKY/WX    TMP DP  RH WIND       PRES   REMARKS
ROCKFORD       MOCLDY    28  22  78 S3        30.32F
FREEPORT*      CLOUDY    27  23  83 S6        30.31F WCI  21
DE KALB*       CLEAR     26  22  88 SW5       30.31F WCI  20
$$

ILZ005-006-012>014-019>023-060600-
NORTHEAST ILLINOIS

CITY           SKY/WX    TMP DP  RH WIND       PRES   REMARKS
CHICAGO-OHARE  PTCLDY    27  21  78 SW5       30.31S WCI  22
CHICAGO-MIDWAY PTCLDY    28  20  71 SW7       30.32F WCI  21
AURORA         MOCLDY    26  22  84 S3        30.32F
LANSING*       CLEAR     25  22  88 SW6       30.33S WCI  18
WAUKEGAN       CLOUDY    27  21  78 CALM      30.29F
DUPAGE AIRPORT CLEAR     24  19  81 SW6       30.31S WCI  17
WHEELING       PTCLDY    27  21  78 SW5       30.32S WCI  22
NORTHERLY ISL    N/A     29  21  72 SW5         N/A  WCI  24
$$

LMZ740>746-060600-
SOUTHERN LAKE MICHIGAN

STATION/POSITION SKY/WX   TEMP    WIND        PRES    VSBY  WAVE
                          AIR SEA DIR/SP/G                  HT/PER
                          (F)     (DEG/KT/KT) (MB)    (MI)  (FT/S)
HARRISON CRIB              31     270/  8/  9   N/A
BURNHAM HARBOR             29     180/  7/  7   N/A
CALUMET HARBOR             28     220/  3/  5 1026.3F
BURNS HARBOR               29     210/  8/ 10 1027.4F
MICHIGAN CITY              28     170/  7/  8   N/A
$$

ILZ025>027-034>036-040-047-049-050-058-095>099-060600-
WEST-CENTRAL ILLINOIS

CITY           SKY/WX    TMP DP  RH WIND       PRES   REMARKS
QUINCY         CLOUDY    29  22  75 SE6       30.31S WCI  23
MACOMB*        CLOUDY    28  25  89 S5        30.34S WCI  22
$$

ILZ028>032-037-038-041>044-048-051>054-059>061-060600-
CENTRAL ILLINOIS

CITY           SKY/WX    TMP DP  RH WIND       PRES   REMARKS
BLOOMINGTON    CLEAR     24  23  96 S5        30.33F WCI  18
DECATUR        CLEAR     26  22  84 SE3       30.34F
PEORIA         CLOUDY    26  20  77 CALM      30.33F
SPRINGFIELD    CLEAR     27  22  81 SE6       30.33F WCI  20
TAYLORVILLE    NOT AVBL
$$

ILZ033-039-045-046-055>057-062-063-060600-
EAST-CENTRAL ILLINOIS

CITY           SKY/WX    TMP DP  RH WIND       PRES   REMARKS
CHAMPAIGN      CLEAR     23  21  92 S5        30.34F WCI  17
MATTOON        CLOUDY    25  21  85 S3        30.34F
$$

ILZ079-100>102-060600-
SOUTHWEST ILLINOIS

CITY           SKY/WX    TMP DP  RH WIND       PRES   REMARKS
BELLEVILLE     CLEAR     25  20  80 S1        30.33F
CAHOKIA*       CLEAR     28  19  69 S3        30.34F
SPARTA*        CLEAR     30  22  72 CALM      30.35S
$$

ILZ064>066-069>071-074>076-080>082-084>086-088>090-092>094-060600-
SOUTH-CENTRAL ILLINOIS

CITY           SKY/WX    TMP DP  RH WIND       PRES   REMARKS
CARBONDALE     CLOUDY    29  21  72 E5        30.35F WCI  24
MARION         CLOUDY    32  23  69 CALM      30.36F
MT. VERNON     CLEAR     25  16  68 CALM      30.36S
CENTRALIA*     CLEAR     27  25  93 SE3       30.34F
SALEM*         CLEAR     30  23  74 E3        30.35F
$$

ILZ067-068-072-073-078-083-087-091-060600-
SOUTHEAST ILLINOIS

CITY           SKY/WX    TMP DP  RH WIND       PRES   REMARKS
LAWRENCEVILLE  CLEAR     24  21  88 E3        30.38F
HARRISBURG*    CLOUDY    29  26  89 CALM      30.37F
ROBINSON*      CLOUDY    22  20  93 CALM      30.38F
CARMI*         PTCLDY    29  27  90 CALM      30.37F
$$

ABBREVIATIONS USED IN REMARKS
   TC - TEMPERATURE IN CELSIUS
  WCI - WIND CHILL INDEX
   HX - HEAT INDEX
  VSB - VISIBILITY
$$




USA.gov is the U.S. government's official web portal to all federal, state and local government web resources and services.